sat.trackr.live / text

‹ back to catalog

ONEWEB-0256

NORAD 48974 · 2021-060H

PAYLOAD ACTIVE UNKNOWN

§ Identity

Operator
Country
UK
Launch date
2021-07-01
Launch site
VOSTO
Launch vehicle
Mass (kg)
RCS (m²)

Purposes: comms

External: N2YO · Heavens-Above · Gunter

§ Orbital elements

Epoch: 2026-09-12T22:08:49.850880Z

Period
109.37 min
Inclination
87.9139°
Eccentricity
0.0002169
Mean motion
13.16593714 rev/d
Perigee alt
1,196.1 km
Apogee alt
1,199.4 km
Semi-major
7,575.9 km
B*
-1.3484e-4
RAAN
211.3590°
Arg perigee
81.7175°
Mean anomaly
278.4202°
Rev number
25,117

§ Raw data

ONEWEB-02561 48974U 21060H   26255.92279920 -.00000039  00000+0 -13484-3 0  99972 48974  87.9139 211.3590 0002169  81.7175 278.4202 13.16593714251170

JSON: /api/v1/satellites/48974 · /tle

For live sub-satellite position, see the globe view (requires WebGL).

§ Visibility from observer

Set your observer location to see the next 7 days of passes ≥ 10°. The values pass through the URL so the page stays shareable.

No JS? Fill the form by hand. The geolocation button needs JavaScript.